Temperature
6 6 6 7 7 6 6 6 6 8 9 8 8 9 10 10 10 10 10 10 11 11 11 11 11 11 11 11 11 12 12 12 12 12 12 12 12 12 12 12 12 12 11 11
6 6 7 7 6 6 6 6 6 7 8 8 8 8 9 10 10 10 10 10 10 10 11 11 11 11 11 11 11 11 11 12 12 12 12 12 12 12 12 12 12 12 11 11
5 7 6 6 6 6 6 6 6 6 7 7 7 8 9 10 10 10 9 9 10 9 10 10 11 11 11 11 11 11 11 11 11 12 12 12 11 11 11 11 11 11 11 11
6 6 5 5 6 5 5 6 6 6 6 6 7 7 9 10 10 10 9 9 9 9 9 10 10 10 10 11 11 11 11 11 11 11 11 11 11 11 11 12 12 11 11 11
6 5 5 5 5 5 5 6 6 6 6 6 7 6 8 9 8 9 9 9 8 8 9 9 10 10 10 10 10 11 11 11 11 11 11 11 11 11 11 11 11 11 11 11
5 5 5 5 6 6 6 6 6 6 6 5 7 7 8 9 8 8 9 8 8 8 8 9 9 10 10 10 10 10 11 11 11 11 11 11 11 11 11 11 11 11 11 11
5 6 5 5 5 6 5 5 5 6 6 7 8 7 8 8 8 8 8 8 7 7 8 8 8 9 9 9 10 10 10 11 11 11 11 11 12 12 11 11 11 11 11 11
4 5 5 5 5 4 4 4 4 5 6 7 8 7 8 8 7 7 7 7 6 7 7 7 8 8 8 9 9 10 10 11 11 11 11 11 11 11 11 11 11 11 11 12
3 4 5 5 5 4 4 4 4 4 5 5 7 7 8 8 7 7 6 6 6 6 6 6 7 7 8 8 9 9 10 11 11 11 11 11 11 11 12 11 11 11 11 12
2 2 4 5 5 5 5 5 4 4 4 5 7 7 7 6 6 6 6 6 5 5 5 6 6 6 7 8 8 9 10 10 11 11 11 11 11 11 11 11 11 12 12 12
2 2 4 4 4 4 4 4 3 4 4 4 5 7 7 6 6 6 5 5 5 5 5 5 5 6 6 7 8 9 9 10 10 11 11 11 11 11 11 11 12 12 12 12
2 2 3 4 5 4 4 3 3 3 3 4 4 6 7 6 6 5 5 4 4 4 4 5 5 5 6 7 7 8 9 9 10 11 11 11 11 11 11 11 11 11 12 12
2 1 2 4 4 3 2 3 3 2 3 3 4 6 7 7 6 6 5 4 4 4 4 4 5 5 5 6 7 7 8 9 10 10 10 11 11 11 11 11 11 11 11 11
3 1 2 3 4 3 2 2 2 2 2 3 4 5 6 6 6 6 5 4 4 4 4 4 4 4 5 5 6 7 7 8 9 9 10 10 11 11 11 11 11 11 11 11
2 2 2 2 3 3 2 2 3 2 2 3 4 5 5 5 5 5 5 4 4 4 3 3 3 4 4 5 6 6 7 8 9 9 10 10 11 11 11 11 11 11 11 11
1 1 1 2 3 3 2 3 3 3 3 3 3 4 5 5 5 5 4 4 3 3 3 3 3 3 4 4 5 6 6 7 8 9 9 10 10 11 11 11 11 11 11 11
0 -0 0 2 3 2 2 4 3 3 4 3 3 4 5 5 4 4 4 3 3 3 3 3 3 3 3 4 5 5 6 7 7 8 9 9 10 10 11 11 11 11 10 10
-0 -0 0 1 1 1 4 4 3 3 3 4 4 4 4 4 4 3 3 3 3 3 3 3 3 3 3 4 4 5 6 6 7 8 8 9 9 10 10 10 10 10 10 10
1 -0 0 1 1 2 4 4 3 2 3 4 4 4 4 3 3 4 3 2 2 2 2 2 3 3 3 4 4 5 5 6 6 7 8 8 9 9 10 10 10 10 10 10
0 -0 -0 0 0 1 4 4 3 2 2 4 3 3 3 3 3 4 3 2 2 2 2 2 2 3 3 4 4 5 5 5 6 7 7 8 9 9 9 10 10 10 10 10
-1 -1 -1 0 0 2 4 3 2 2 3 3 2 2 2 2 2 2 2 2 2 2 2 2 2 3 3 3 4 4 5 5 6 6 7 8 8 8 9 9 9 9 9 9
0 -0 -1 0 0 2 3 2 2 3 3 2 2 2 2 1 1 1 1 1 1 1 1 2 2 2 3 3 3 4 4 5 5 6 7 7 8 8 9 9 9 9 9 9
1 1 1 1 2 4 2 2 2 2 2 1 1 1 1 1 1 1 1 1 1 1 1 1 2 2 2 3 3 3 4 5 5 6 6 7 7 8 8 8 9 9 9 9
1 1 0 0 2 3 2 2 1 1 1 1 0 0 0 0 0 0 0 0 1 1 1 1 1 2 2 3 3 3 4 4 5 5 6 6 7 7 8 8 8 8 8 8
2 0 0 1 2 2 1 1 1 0 0 -0 -0 -0 -1 -0 -0 -0 -0 0 0 0 0 1 1 1 2 2 3 3 3 4 4 5 6 6 7 7 7 8 8 8 8 9
1 1 1 1 2 2 2 1 0 -0 -1 -1 -1 -1 -1 -1 -1 -1 -0 -0 -0 -0 0 0 1 1 1 2 3 3 3 4 4 5 5 6 6 6 7 7 7 7 8 8
Wind_Speed
3 4 6 9 10 13 16 17 22 23 19 16 19 22 22 18 16 17 18 17 17 17 16 15 15 15 15 16 17 17 17 16 15 13 12 13 14 14 14 14 18 19 18 19
4 6 9 11 11 13 14 17 20 19 14 15 18 22 20 16 15 14 15 15 16 15 14 14 14 15 15 16 17 17 18 17 18 15 13 13 13 12 13 13 16 19 19 19
7 8 9 10 12 13 14 14 17 19 19 12 12 14 12 9 10 11 12 13 13 13 12 12 13 14 14 15 17 16 18 18 18 18 13 12 11 10 11 14 15 17 19 19
6 7 9 11 12 12 13 11 15 17 14 8 7 9 11 9 9 9 9 9 10 11 11 10 10 11 13 14 14 16 17 17 18 18 16 18 15 14 13 14 14 16 18 19
7 8 10 11 11 11 10 15 16 15 12 10 9 7 8 7 9 10 10 9 9 10 10 9 9 10 11 11 11 13 15 16 17 18 19 20 18 15 12 14 16 17 17 18
9 7 7 7 11 10 12 13 12 8 6 6 6 6 7 5 9 11 10 10 10 9 8 8 7 7 8 7 8 11 14 15 18 19 20 22 21 18 16 17 17 16 14 15
7 5 3 5 9 8 9 8 5 3 3 5 5 5 5 7 9 9 10 11 10 9 8 7 6 6 6 6 7 9 14 15 17 19 20 21 21 21 20 18 18 17 15 14
7 7 5 5 6 8 9 6 5 5 6 8 7 5 4 6 10 10 11 11 12 11 9 8 7 6 6 6 7 9 12 14 16 17 18 19 20 16 15 18 17 18 16 16
6 8 7 8 7 5 6 5 5 6 8 8 6 5 5 8 12 14 14 13 14 13 11 9 8 7 6 6 7 8 11 12 15 17 17 18 19 18 17 18 18 16 16 16
4 10 10 8 5 4 6 7 4 4 5 7 7 7 5 11 13 15 15 14 15 15 13 11 10 8 7 6 6 8 9 12 14 16 16 15 19 19 18 17 18 18 18 17
5 7 9 6 4 7 4 3 4 5 5 6 8 5 4 8 12 14 14 15 15 15 14 13 11 10 8 6 6 6 8 10 11 13 14 16 18 18 18 18 18 18 18 19
4 5 9 10 7 5 6 5 5 5 6 6 8 8 4 8 10 12 14 15 15 15 14 12 11 10 9 7 6 6 7 8 10 11 13 15 16 17 18 18 18 18 18 19
4 5 8 6 3 2 4 6 6 7 7 9 10 9 6 9 13 14 15 15 15 15 15 13 12 11 10 8 7 7 7 7 9 10 12 14 15 17 18 18 17 17 17 18
7 7 10 13 13 11 12 13 11 9 8 11 14 18 17 17 17 17 16 16 15 14 14 14 13 12 11 9 8 7 7 7 7 9 11 13 15 17 18 18 17 17 17 17
5 9 13 18 19 18 19 20 17 16 15 15 17 19 19 18 18 17 15 15 15 15 14 14 14 13 13 11 9 9 8 7 6 9 10 12 14 14 15 16 17 17 16 16
4 8 11 16 16 17 20 21 20 18 17 19 21 21 17 16 15 15 14 14 14 14 15 15 15 14 13 12 11 10 9 8 7 8 10 11 12 13 14 15 16 16 16 16
5 6 8 12 14 14 14 13 12 11 11 12 16 16 14 15 15 15 14 13 13 15 15 15 15 14 13 12 11 10 10 8 7 8 9 10 11 13 14 14 15 16 16 16
9 8 6 8 9 10 7 3 7 11 13 13 14 14 14 14 15 13 11 12 14 15 15 15 15 15 14 12 11 10 9 8 7 7 9 10 11 13 13 14 15 16 14 15
13 9 6 5 8 12 11 7 5 8 11 9 11 12 13 13 13 11 10 11 13 15 15 14 14 14 13 12 11 10 9 7 7 8 9 10 11 13 13 14 14 14 13 13
8 10 8 7 8 9 7 2 1 5 8 4 7 11 12 11 11 11 12 14 15 15 13 13 14 13 12 11 10 9 8 8 7 8 8 10 11 12 14 14 14 12 12 12
5 7 11 12 11 10 8 2 2 5 6 6 8 10 11 11 12 15 16 15 15 15 15 14 13 12 12 11 10 9 9 8 8 7 8 9 10 12 13 13 12 12 12 12
8 7 8 8 9 10 3 3 5 7 8 10 11 12 13 14 15 16 16 16 15 15 15 14 13 12 11 10 9 10 9 9 8 7 7 8 9 10 10 12 12 12 13 13
10 10 6 9 11 8 5 8 10 10 12 12 12 14 14 15 15 16 16 16 15 15 14 13 13 13 12 10 9 10 10 8 7 7 7 7 8 9 11 13 13 12 12 11
8 9 9 11 15 16 15 14 14 13 13 13 13 14 14 15 15 16 15 15 14 14 14 13 13 12 12 11 10 10 9 8 7 7 6 7 8 9 10 10 11 11 12 12
11 8 10 16 17 16 15 14 14 14 13 14 13 14 14 14 15 15 14 14 14 14 13 13 12 12 13 12 11 10 8 7 7 6 6 6 7 8 8 8 8 10 10 12
12 14 13 14 14 12 14 13 13 14 14 14 14 15 14 13 14 15 14 13 13 13 13 13 12 13 12 11 11 9 8 6 6 6 6 6 7 7 7 7 6 6 8 12
Wind_Direction
315 282 291 297 287 285 291 290 290 292 298 291 282 282 284 285 276 272 269 268 265 259 253 245 240 236 230 224 219 212 207 202 192 183 181 180 181 181 179 180 180 179 178 178
301 283 296 300 296 290 290 292 293 299 303 296 285 285 285 279 272 267 268 269 269 270 259 246 239 233 227 222 219 212 208 203 197 189 185 183 180 183 181 179 182 182 181 181
297 304 316 304 302 302 294 287 296 302 308 293 286 286 286 289 280 276 272 272 272 271 267 252 242 233 225 221 218 213 207 203 199 190 185 179 173 176 181 183 184 186 184 184
297 306 311 308 308 309 299 300 298 299 302 298 294 294 297 305 308 312 304 292 283 278 272 261 250 240 227 224 221 214 207 202 198 192 189 183 182 185 190 185 184 184 186 187
300 304 309 307 312 310 295 304 295 289 285 284 274 267 289 307 310 316 318 316 305 293 280 267 253 247 234 227 225 215 207 204 199 195 195 189 190 190 188 184 183 184 187 190
284 288 292 298 309 305 304 303 292 272 264 268 282 272 294 322 325 326 327 326 323 315 298 278 265 257 245 232 231 220 206 207 202 197 199 196 192 187 186 187 185 186 187 190
317 295 308 309 319 323 333 326 319 305 270 277 301 280 290 340 343 335 337 339 336 332 324 307 291 273 259 243 232 223 209 208 203 200 202 200 195 190 190 191 190 187 188 191
322 315 335 325 319 312 319 319 312 306 299 304 297 275 307 353 351 347 345 345 346 346 340 329 316 297 273 253 237 229 216 212 204 203 204 201 198 194 195 196 193 192 192 192
312 299 308 308 301 292 311 309 293 283 285 280 276 281 295 346 352 352 348 347 348 347 343 335 325 316 296 271 250 239 227 218 209 206 205 202 200 197 196 197 196 194 194 191
286 289 297 307 293 251 271 302 297 294 302 293 290 287 318 346 348 347 348 346 345 345 340 332 327 320 309 294 269 248 239 225 213 209 207 204 201 199 197 197 197 196 194 190
263 277 293 297 284 295 290 288 289 286 287 292 294 296 351 338 337 338 338 338 337 339 338 332 327 319 308 310 298 270 249 232 218 213 210 208 203 200 199 201 200 197 195 191
258 271 280 281 276 276 264 270 275 286 285 273 281 284 327 327 330 332 331 334 334 334 335 332 330 327 321 315 307 289 267 237 223 217 213 211 206 200 198 201 201 199 195 193
273 263 291 291 242 232 266 264 268 273 272 269 274 283 318 324 326 328 329 332 333 334 336 337 337 335 331 323 310 292 279 251 229 221 216 212 207 203 201 201 200 197 195 193
279 251 253 273 288 294 285 279 271 260 260 269 266 281 297 311 319 322 325 328 331 332 336 338 338 336 333 325 315 300 284 270 242 227 219 214 210 207 203 202 199 196 192 191
258 264 263 269 276 278 275 276 273 259 254 261 273 281 292 305 312 315 320 324 328 330 334 335 334 332 332 328 319 311 295 283 258 233 224 217 213 209 204 200 197 193 191 190
242 267 280 279 278 278 276 273 269 263 258 258 268 276 286 297 306 311 316 321 325 326 328 328 328 328 328 326 318 312 302 290 272 243 230 221 214 207 203 199 194 190 189 187
244 258 277 281 294 294 274 265 259 255 253 258 267 279 298 304 308 309 313 315 318 321 321 321 321 320 319 319 315 307 300 290 271 253 236 223 213 206 201 197 193 190 188 185
243 250 261 281 292 264 273 286 268 265 265 263 269 281 292 299 302 300 305 309 313 317 317 316 316 317 316 315 312 307 299 287 269 253 240 225 211 206 199 194 192 189 187 186
225 231 249 262 272 277 282 275 256 260 276 273 274 289 301 308 303 291 305 311 308 309 310 310 310 312 313 312 311 306 297 286 267 251 241 228 212 204 198 195 192 188 185 185
207 215 238 250 263 270 281 303 277 277 276 286 295 302 308 313 302 303 319 314 309 309 310 313 313 312 313 312 310 303 294 285 271 258 246 233 214 202 197 195 191 186 182 178
201 219 230 244 255 267 276 261 206 253 286 324 311 308 308 300 292 301 307 308 307 308 310 313 314 312 310 310 307 299 291 283 279 269 251 236 215 202 195 191 187 180 174 169
214 217 223 232 242 256 220 192 232 268 302 298 299 302 301 296 296 300 303 306 308 309 310 313 312 309 308 305 300 293 288 287 285 269 250 233 214 197 188 183 179 175 168 165
220 220 228 225 243 276 253 254 269 282 287 291 294 297 296 294 294 299 302 305 307 307 308 310 308 306 305 301 295 290 290 289 279 265 247 226 207 191 184 182 175 172 168 167
235 228 238 252 259 267 273 275 275 279 280 285 288 292 293 292 294 297 299 301 305 306 307 308 306 304 302 301 296 290 290 286 268 253 239 213 197 186 182 180 176 174 172 169
244 224 239 255 268 278 271 271 276 280 282 285 289 289 288 290 291 293 295 298 302 303 304 303 301 300 300 300 298 295 290 281 260 242 225 203 188 178 174 172 175 176 176 173
236 232 241 257 267 270 278 282 283 283 286 289 292 292 290 287 287 290 291 293 297 299 301 300 298 297 298 298 295 294 291 275 252 230 208 189 177 171 163 153 140 123 145 146
Height
1473 1471 1464 1462 1461 1459 1455 1450 1443 1433 1430 1429 1421 1414 1409 1409 1408 1406 1404 1403 1401 1400 1401 1402 1404 1405 1407 1409 1412 1415 1419 1423 1428 1432 1436 1441 1447 1453 1458 1464 1470 1475 1480 1485
1470 1465 1463 1462 1460 1457 1453 1448 1439 1430 1427 1426 1418 1410 1405 1403 1402 1401 1400 1398 1397 1395 1395 1396 1397 1399 1400 1403 1406 1410 1413 1417 1422 1426 1431 1437 1442 1448 1454 1460 1465 1471 1476 1481
1470 1465 1464 1461 1457 1453 1448 1444 1438 1433 1427 1421 1417 1405 1397 1395 1395 1396 1396 1395 1393 1392 1391 1391 1392 1393 1395 1397 1400 1404 1407 1412 1416 1421 1427 1433 1438 1444 1449 1454 1460 1466 1471 1476
1467 1465 1464 1459 1455 1452 1445 1440 1438 1433 1429 1420 1417 1409 1394 1393 1392 1392 1392 1390 1389 1388 1387 1387 1387 1388 1390 1392 1395 1399 1402 1406 1411 1416 1421 1425 1430 1435 1441 1448 1454 1461 1466 1472
1466 1464 1463 1458 1454 1452 1445 1441 1437 1431 1427 1423 1412 1412 1395 1391 1391 1390 1390 1388 1386 1385 1384 1383 1383 1384 1385 1388 1390 1394 1397 1400 1405 1410 1415 1420 1425 1431 1438 1444 1450 1455 1461 1467
1467 1465 1463 1459 1454 1451 1446 1439 1430 1425 1423 1420 1408 1406 1394 1391 1393 1391 1389 1387 1385 1382 1381 1380 1380 1381 1383 1384 1386 1389 1392 1396 1400 1405 1410 1414 1419 1426 1432 1438 1443 1449 1455 1461
1463 1460 1460 1459 1454 1448 1446 1441 1429 1421 1417 1410 1404 1404 1398 1396 1396 1394 1391 1388 1384 1382 1379 1378 1377 1378 1379 1380 1381 1384 1388 1391 1395 1399 1404 1409 1414 1420 1426 1432 1438 1443 1449 1454
1469 1458 1458 1458 1457 1454 1449 1447 1443 1433 1417 1406 1402 1400 1397 1398 1398 1395 1392 1389 1385 1382 1379 1377 1376 1376 1376 1377 1378 1380 1383 1386 1390 1394 1398 1404 1410 1415 1421 1427 1432 1438 1443 1448
1472 1461 1458 1457 1456 1455 1450 1445 1444 1441 1427 1419 1402 1397 1396 1397 1395 1393 1391 1388 1385 1382 1379 1377 1376 1374 1373 1373 1374 1376 1378 1381 1385 1389 1394 1399 1405 1410 1415 1422 1428 1433 1438 1444
1477 1470 1457 1456 1454 1451 1450 1446 1444 1439 1430 1414 1402 1397 1397 1397 1396 1394 1392 1389 1386 1383 1380 1377 1375 1372 1371 1371 1371 1372 1374 1377 1380 1385 1389 1394 1399 1404 1411 1417 1421 1427 1433 1438
1477 1473 1459 1454 1452 1449 1450 1448 1445 1439 1435 1424 1409 1399 1400 1401 1400 1397 1394 1391 1387 1384 1380 1376 1373 1371 1369 1368 1368 1368 1369 1371 1375 1379 1384 1389 1394 1399 1405 1411 1416 1421 1427 1433
1474 1471 1459 1450 1448 1450 1449 1447 1445 1444 1436 1429 1419 1405 1401 1401 1400 1398 1395 1391 1387 1384 1380 1376 1372 1369 1367 1365 1365 1365 1366 1368 1371 1374 1379 1384 1389 1394 1400 1405 1411 1416 1422 1427
1473 1471 1459 1443 1446 1449 1449 1445 1444 1444 1438 1427 1418 1404 1398 1400 1398 1397 1394 1390 1386 1383 1378 1375 1371 1368 1365 1363 1363 1362 1362 1364 1367 1370 1374 1378 1383 1388 1394 1399 1405 1410 1416 1422
1469 1466 1462 1451 1442 1445 1446 1443 1441 1442 1434 1423 1413 1403 1398 1398 1396 1395 1392 1389 1386 1382 1378 1374 1370 1367 1364 1362 1361 1360 1360 1361 1363 1366 1369 1373 1377 1382 1387 1393 1399 1404 1410 1416
1467 1460 1454 1449 1444 1442 1440 1435 1433 1433 1428 1423 1409 1404 1399 1398 1397 1394 1391 1387 1384 1380 1376 1373 1369 1366 1362 1360 1358 1357 1357 1358 1359 1362 1365 1368 1373 1378 1383 1388 1394 1399 1405 1410
1463 1458 1452 1444 1438 1436 1432 1425 1422 1420 1418 1414 1409 1403 1399 1398 1395 1392 1389 1386 1382 1379 1375 1372 1368 1364 1361 1358 1356 1354 1354 1354 1355 1358 1360 1364 1368 1373 1378 1383 1389 1394 1399 1405
1459 1458 1452 1438 1433 1433 1421 1412 1412 1410 1408 1408 1403 1398 1396 1395 1392 1390 1387 1384 1381 1377 1374 1370 1367 1363 1359 1356 1354 1352 1351 1351 1352 1353 1356 1360 1363 1368 1373 1378 1384 1389 1394 1399
1454 1453 1449 1440 1436 1431 1409 1409 1410 1408 1403 1402 1400 1397 1395 1393 1390 1387 1385 1382 1378 1375 1371 1367 1364 1360 1356 1353 1351 1349 1349 1349 1349 1350 1352 1355 1359 1363 1368 1373 1378 1383 1389 1394
1447 1449 1445 1438 1430 1415 1407 1406 1407 1406 1399 1397 1396 1394 1392 1390 1386 1382 1381 1379 1376 1373 1369 1365 1361 1357 1353 1350 1348 1347 1345 1345 1345 1346 1348 1350 1354 1358 1363 1367 1372 1378 1384 1389
1443 1444 1443 1435 1430 1416 1401 1404 1405 1406 1397 1394 1393 1392 1390 1388 1383 1377 1377 1375 1372 1368 1365 1361 1356 1353 1350 1347 1345 1343 1342 1341 1341 1341 1343 1347 1350 1354 1358 1362 1368 1374 1380 1385
1440 1439 1437 1430 1423 1407 1401 1403 1405 1404 1395 1394 1392 1391 1389 1386 1384 1379 1375 1371 1368 1364 1360 1356 1352 1349 1346 1343 1341 1340 1338 1337 1337 1338 1340 1342 1346 1350 1354 1359 1364 1370 1375 1381
1427 1427 1427 1423 1419 1406 1398 1401 1400 1395 1393 1392 1390 1388 1386 1382 1379 1375 1371 1367 1363 1359 1356 1352 1348 1345 1342 1340 1338 1335 1334 1334 1334 1334 1335 1338 1341 1345 1350 1355 1360 1365 1371 1376
1418 1414 1412 1411 1402 1395 1396 1395 1394 1393 1391 1388 1387 1384 1382 1377 1374 1370 1366 1363 1359 1356 1352 1349 1345 1341 1338 1337 1334 1332 1330 1330 1330 1330 1331 1334 1337 1341 1345 1350 1355 1361 1366 1372
1409 1410 1409 1404 1395 1393 1392 1391 1390 1389 1386 1384 1383 1380 1377 1373 1369 1366 1362 1358 1355 1352 1348 1345 1341 1337 1334 1332 1330 1328 1326 1326 1325 1326 1327 1330 1333 1337 1342 1347 1351 1356 1361 1366
1400 1403 1400 1395 1390 1389 1387 1386 1385 1383 1381 1379 1377 1374 1372 1368 1365 1361 1357 1354 1350 1347 1343 1340 1337 1333 1329 1327 1325 1323 1322 1322 1322 1322 1324 1327 1330 1334 1338 1343 1348 1352 1357 1362
1392 1393 1391 1385 1383 1383 1381 1380 1379 1377 1375 1373 1371 1368 1365 1363 1359 1356 1353 1349 1346 1342 1338 1335 1332 1329 1325 1323 1320 1319 1318 1318 1318 1318 1320 1323 1327 1330 1334 1339 1345 1351 1356 1361